SCP
0 0 0 0 0 0 0 1 1 2 3 5 5 5 5 6 6 6 5 5 5 6 6 6 6 6 6 6 7 7 6 5 4 3 2 2 2 2 2 3 3 3 3 3
0 0 0 0 0 1 1 1 2 3 4 5 5 6 7 8 7 6 5 5 5 6 6 6 6 7 7 7 7 6 6 5 3 2 2 2 2 2 2 3 3 3 4 4
0 0 0 0 0 1 1 2 2 3 4 6 6 7 8 9 9 8 6 5 5 6 6 5 6 8 9 8 8 8 6 4 3 2 2 2 2 2 3 3 3 4 4 5
0 0 0 0 1 1 2 3 3 4 6 8 9 10 10 10 11 12 10 8 7 7 6 6 6 8 10 10 10 9 6 4 3 2 2 2 2 2 3 3 4 4 5 5
0 0 0 1 1 2 3 4 4 6 9 12 15 15 12 12 14 14 12 11 9 8 7 6 7 10 11 11 10 8 5 3 2 2 2 2 2 2 3 3 4 4 5 5
0 0 1 2 2 3 4 4 5 7 10 14 19 20 16 16 16 15 13 11 9 8 7 6 8 11 13 13 10 7 4 3 2 2 2 3 3 3 3 3 4 4 5 5
0 0 1 3 4 4 4 5 6 7 10 16 20 22 21 20 19 16 11 9 8 7 6 6 7 11 13 12 9 6 5 3 3 3 3 3 3 3 3 3 4 4 4 4
1 1 2 4 5 5 6 7 7 8 13 18 22 25 24 21 19 15 10 8 7 7 6 6 7 9 10 9 7 6 5 5 4 4 4 4 4 4 4 4 4 4 3 3
2 2 3 4 6 6 7 7 9 13 19 24 26 25 21 17 15 12 10 8 8 7 6 5 6 7 8 7 7 7 7 6 5 5 5 4 4 4 5 5 5 4 3 1
4 4 4 6 7 7 7 8 10 16 22 26 25 19 14 13 12 11 10 9 9 8 7 6 6 7 7 8 8 9 8 7 7 6 6 5 4 4 5 5 5 4 2 1
5 5 6 7 9 9 9 10 13 16 20 21 17 14 12 12 12 12 12 12 11 10 9 8 7 8 8 9 11 11 10 9 8 7 6 4 3 3 3 4 4 3 2 1
6 6 7 9 10 12 13 15 15 15 15 14 13 12 12 12 13 13 13 12 11 10 9 8 8 8 9 11 13 13 11 9 8 7 5 3 2 1 1 1 1 1 1 1
6 7 9 11 13 15 17 19 18 15 14 13 12 12 11 11 11 11 11 10 9 9 8 8 8 9 11 13 14 13 11 9 7 5 3 2 1 1 1 0 0 0 0 0
9 11 14 15 16 17 19 21 19 17 15 12 11 10 10 9 8 7 7 6 6 7 7 8 9 10 11 13 13 11 9 7 5 4 3 2 1 1 1 0 0 0 0 0
13 18 24 26 25 22 20 20 19 17 13 10 9 8 8 7 6 5 4 3 3 4 5 6 7 8 9 9 9 7 5 4 4 4 4 3 2 1 1 1 0 0 0 0
15 22 32 33 28 23 19 17 15 13 9 7 6 6 5 5 4 3 2 2 2 2 3 3 4 4 4 4 4 3 3 2 3 3 4 4 3 2 1 1 1 0 0 0
14 18 22 22 17 14 12 11 10 8 6 5 4 4 4 3 2 2 1 1 1 1 1 1 1 1 1 1 1 1 1 1 1 2 3 3 3 2 1 1 0 0 0 0
7 8 8 7 5 4 5 6 5 4 4 4 4 4 3 2 1 1 1 1 1 1 1 1 0 0 0 0 0 0 0 0 0 0 1 2 2 2 1 0 0 0 0 0
2 3 3 4 3 3 2 3 3 3 4 4 4 3 2 2 1 1 1 1 1 0 0 0 0 0 0 0 0 0 0 0 0 0 0 0 1 1 0 0 0 0 0 0
3 3 3 3 3 3 2 2 2 3 4 3 3 2 2 1 1 1 1 1 0 0 0 0 0 0 0 0 0 0 0 0 0 0 0 0 0 0 0 0 0 0 0 0
2 3 3 3 3 3 2 2 3 4 4 3 3 2 1 1 1 0 0 0 0 0 0 0 0 0 0 0 0 0 0 0 0 0 0 0 0 0 0 0 0 0 0 0
2 2 2 2 2 2 2 2 2 3 3 3 3 2 1 1 0 0 0 0 0 0 0 0 0 0 0 0 0 0 0 0 0 0 0 0 0 0 0 0 0 0 0 0
1 1 2 2 1 1 2 1 1 2 2 3 3 2 2 1 0 0 0 0 0 0 0 0 0 0 0 0 0 0 0 0 0 0 0 0 0 0 0 0 0 0 0 0
1 1 1 1 1 1 1 1 1 1 1 2 2 2 2 1 0 0 0 0 0 0 0 0 0 0 0 0 0 0 0 0 0 0 0 0 0 0 0 0 0 0 0 0
1 1 1 1 1 1 1 1 1 1 1 1 2 2 2 1 0 0 0 0 0 0 0 0 0 0 0 0 0 0 0 0 0 0 0 0 0 0 0 0 0 0 0 0
1 1 1 1 1 0 0 0 0 0 1 1 1 1 1 0 0 0 0 0 0 0 0 0 0 0 0 0 0 0 0 0 0 0 0 0 0 0 0 0 0 0 0 0
0 0 0 1 1 0 0 0 0 0 0 0 0 0 0 0 0 0 0 0 0 0 0 0 0 0 0 0 0 0 0 0 0 0 0 0 0 0 0 0 0 0 0 0
Wind_Speed
4 5 2 3 4 2 3 8 9 9 10 13 13 13 11 9 8 8 8 8 8 8 6 6 5 5 5 4 3 4 5 4 3 3 3 2 2 2 1 2 2 2 2 2
3 3 4 3 3 2 2 3 6 7 6 8 8 7 7 8 10 9 9 8 8 8 7 6 6 5 5 4 4 4 4 4 3 3 3 2 2 2 2 2 2 2 2 2
3 5 4 4 4 2 2 4 8 7 8 9 9 10 10 10 10 10 9 9 9 8 7 7 6 6 6 5 4 4 3 3 3 3 3 2 2 2 2 1 1 2 2 2
1 3 3 10 5 2 3 2 3 5 7 11 11 9 8 9 11 10 9 8 8 7 7 6 5 6 6 5 5 4 3 2 2 2 2 2 2 2 2 2 2 2 2 1
3 2 5 8 4 2 5 1 3 8 8 9 10 9 4 3 7 9 8 8 7 7 7 6 6 6 6 5 5 4 3 2 2 2 3 2 2 2 2 2 2 2 1 2
4 3 5 7 6 1 7 0 2 9 11 10 9 6 4 5 7 8 7 7 7 7 7 7 6 6 7 5 4 3 3 2 2 2 3 3 2 2 2 2 2 2 2 1
4 4 6 7 6 2 4 7 4 6 10 10 6 7 8 9 8 9 8 8 8 8 7 6 6 7 7 5 3 2 2 3 2 3 3 3 3 3 3 3 3 2 2 2
4 3 7 6 3 2 6 4 4 6 7 7 8 9 9 9 9 9 9 8 8 8 6 5 6 7 6 4 3 3 3 4 3 3 3 3 4 3 3 3 2 2 2 2
6 7 6 3 1 2 5 7 5 6 8 12 11 9 9 8 9 8 8 7 7 8 7 5 4 6 6 3 3 4 4 4 4 4 3 3 4 3 2 2 2 1 1 1
1 3 2 3 2 2 4 7 6 9 12 13 12 10 9 9 8 8 6 6 6 7 7 5 4 4 4 4 4 4 4 4 3 4 4 4 3 3 2 2 1 1 1 1
1 2 3 4 2 3 5 7 9 8 9 11 13 11 9 8 8 8 6 5 6 7 6 5 4 4 3 3 4 4 4 3 3 3 4 4 4 3 2 1 0 1 1 1
4 5 3 2 1 4 7 8 9 9 8 8 10 9 9 8 7 7 7 6 6 6 6 5 5 4 3 3 4 5 3 2 2 3 3 3 3 3 6 5 5 4 2 2
4 2 3 1 0 5 7 8 9 10 11 10 8 9 9 7 6 7 7 7 7 6 5 5 5 4 3 3 4 4 3 3 2 2 3 3 3 3 2 3 6 6 5 3
2 3 3 1 1 4 8 9 9 9 8 9 8 8 8 8 7 7 6 6 6 6 5 5 5 3 2 3 3 3 3 3 3 2 3 3 3 2 2 2 1 2 3 4
1 3 3 3 4 5 7 10 10 8 8 7 7 8 9 8 7 6 6 6 6 6 5 5 4 2 1 2 3 2 2 2 2 2 2 3 3 2 2 2 2 1 1 2
2 3 4 6 6 5 7 10 10 8 8 8 7 7 8 8 7 7 6 6 6 5 4 4 3 1 1 2 2 2 1 2 2 2 2 2 3 3 2 2 2 2 1 1
4 3 4 5 5 5 6 7 8 8 8 8 8 8 8 8 7 6 5 5 5 4 4 3 1 1 1 2 2 1 1 1 2 2 2 2 3 3 3 3 2 2 2 2
4 4 4 6 8 8 6 5 6 8 8 8 7 8 7 7 7 5 5 4 5 4 3 2 1 1 2 2 1 1 1 1 1 2 2 2 2 2 2 3 3 3 1 1
6 6 6 6 8 8 6 5 5 6 7 7 8 7 6 6 6 5 4 5 5 3 0 0 2 2 1 1 2 1 1 1 1 1 1 2 2 2 2 3 2 2 2 2
7 7 7 7 8 8 7 6 6 5 5 7 8 7 6 5 5 5 5 3 2 2 1 1 2 1 1 0 1 1 1 2 2 2 1 1 2 2 2 3 3 2 2 2
7 7 7 7 7 7 7 7 6 7 7 7 7 7 6 4 4 4 4 2 1 0 2 3 2 1 0 0 1 1 2 2 2 2 2 2 2 2 2 2 2 2 2 2
4 6 6 6 7 6 5 5 5 6 6 6 5 6 6 5 4 4 3 2 2 2 2 1 1 1 1 1 1 1 2 2 2 2 2 2 2 2 2 2 2 2 2 1
3 5 6 6 6 5 5 5 5 5 5 5 5 5 5 4 3 4 2 2 2 3 2 1 1 1 2 1 1 2 2 2 2 2 2 2 2 2 2 2 2 2 2 2
4 4 5 5 6 6 5 4 4 4 4 4 4 5 5 4 2 2 2 3 3 3 2 1 1 1 2 2 1 2 2 2 2 2 2 2 2 2 2 2 2 1 2 2
4 4 4 5 5 3 3 4 4 4 4 3 3 3 3 3 3 3 2 3 3 3 1 1 2 2 2 1 2 2 1 2 2 2 2 2 2 2 2 2 2 2 2 2
4 3 2 3 3 2 2 3 3 2 3 3 2 2 2 2 3 3 2 3 3 2 1 1 1 2 1 1 2 2 2 2 2 2 3 2 2 2 2 2 2 2 2 2
3 3 2 2 1 1 2 2 3 3 3 4 3 2 2 2 2 3 3 3 3 2 1 1 1 2 2 2 2 1 1 2 2 2 2 2 2 2 2 2 2 2 2 2
Wind_Direction
213 234 248 254 269 256 179 178 172 199 182 193 186 177 174 165 153 145 147 151 156 158 159 157 151 149 149 148 146 142 135 137 153 157 153 137 123 121 115 113 110 99 80 64
336 329 343 309 280 257 227 181 164 156 200 201 173 153 153 154 148 148 150 158 159 156 153 153 155 155 148 146 150 141 143 152 155 144 132 130 138 127 110 105 102 98 94 86
297 321 16 298 254 234 225 180 155 172 196 159 151 160 163 158 154 155 156 156 158 157 158 158 157 148 146 143 127 121 132 143 147 142 138 146 138 121 124 120 99 101 101 95
110 33 232 246 254 182 142 166 146 145 154 157 157 156 150 149 150 154 153 152 153 152 149 150 145 137 132 128 128 126 122 116 122 131 129 118 111 118 128 122 109 105 97 96
124 179 274 292 296 150 126 332 130 130 133 130 124 96 79 132 143 146 146 145 146 146 139 133 133 133 126 126 128 130 130 124 127 133 125 117 119 133 137 118 99 98 98 100
139 162 228 255 282 201 104 61 215 137 140 144 126 128 187 165 134 130 130 130 131 127 117 121 131 127 123 128 130 143 152 142 139 132 131 135 133 117 108 112 110 108 88 89
167 202 251 264 288 46 120 211 227 154 150 152 158 168 161 144 135 133 130 128 125 120 119 127 133 127 125 127 142 157 136 124 129 131 128 120 100 89 92 95 91 87 86 62
154 188 251 289 3 146 197 178 158 133 136 122 110 111 121 128 128 123 122 123 124 122 120 121 124 127 129 140 144 118 110 110 105 104 112 107 99 92 89 92 89 85 80 56
180 208 242 291 245 216 148 135 141 133 129 119 113 121 125 127 124 116 119 122 119 120 118 113 122 129 133 145 128 116 106 101 103 96 88 98 106 107 98 100 115 117 102 91
95 282 306 358 47 50 114 128 132 131 131 125 119 121 120 123 118 111 110 118 115 114 115 113 111 113 125 128 120 115 116 112 109 98 86 77 80 90 98 100 112 116 122 143
175 265 20 7 48 79 76 95 103 112 122 127 124 126 128 125 121 118 114 108 110 114 118 119 112 104 110 120 119 115 113 114 114 113 113 95 75 60 72 68 166 176 180 162
224 219 162 246 267 105 109 118 122 117 107 113 121 123 125 124 124 122 121 117 113 113 116 115 111 108 108 116 118 120 118 118 127 127 121 117 110 76 47 50 44 54 71 133
218 211 155 181 172 111 123 126 123 122 123 117 111 116 122 122 121 116 116 117 119 120 119 116 107 100 96 105 114 123 131 136 136 136 137 137 133 130 107 38 46 49 49 64
197 131 90 57 124 108 116 112 107 106 108 113 115 112 117 119 119 120 124 124 118 111 108 107 104 98 93 103 106 117 130 144 149 153 153 155 154 154 149 140 101 30 29 47
275 137 160 147 110 105 113 111 106 106 108 110 114 117 123 123 125 124 121 116 106 98 96 100 99 87 78 98 108 121 132 145 152 155 156 155 152 149 149 145 132 116 67 35
103 112 116 117 113 114 118 118 119 121 120 118 113 113 116 115 113 109 107 109 109 108 106 101 98 91 97 99 99 105 124 134 135 138 139 136 139 143 151 149 141 138 153 166
131 148 138 124 117 116 120 127 131 129 123 121 120 116 114 112 108 104 104 104 109 113 112 108 114 127 106 106 112 125 128 127 115 113 128 135 140 153 158 157 160 164 189 182
141 143 139 134 125 113 104 110 119 119 121 121 117 112 117 121 125 127 122 109 98 89 83 93 99 92 85 87 103 117 131 143 137 137 134 133 140 148 152 154 161 165 175 155
112 109 107 104 108 111 111 109 111 111 117 117 118 119 122 123 127 126 121 114 115 115 158 25 89 96 82 63 85 107 120 127 126 124 134 133 125 127 134 136 140 148 152 139
108 107 104 98 102 111 121 123 116 114 125 120 116 112 109 114 119 118 113 118 146 182 193 127 105 94 75 30 83 119 132 132 129 122 109 112 123 125 125 129 134 139 141 144
117 118 117 114 111 110 117 118 115 115 118 117 118 121 124 126 123 122 119 117 256 167 129 124 116 103 50 45 100 119 126 128 129 133 134 134 129 127 129 133 140 148 150 156
123 130 129 124 118 112 109 109 113 116 117 117 120 124 126 125 121 115 125 161 191 158 133 135 145 121 63 95 111 118 122 128 130 129 126 128 128 128 132 141 149 154 149 150
100 118 119 122 124 119 106 111 121 124 124 129 135 138 140 142 144 142 162 219 180 151 134 159 184 129 101 100 104 110 113 125 130 134 136 137 139 141 147 148 147 139 135 137
86 90 100 107 108 106 106 114 118 122 127 130 137 141 139 130 125 158 167 166 162 150 145 168 155 118 108 102 111 110 111 120 124 124 126 130 131 128 131 130 126 122 124 122
90 85 86 94 98 111 126 121 111 111 113 114 120 128 135 144 156 168 154 154 156 148 152 174 155 131 101 105 122 119 119 130 128 123 121 123 124 122 124 127 130 134 135 137
93 96 102 114 126 133 130 123 123 131 127 125 131 141 139 136 138 140 144 153 165 170 171 175 162 143 117 116 118 119 123 128 118 115 124 131 134 134 132 132 135 146 152 152
86 86 82 71 68 100 116 128 138 146 149 151 155 165 154 145 142 149 149 151 157 161 158 151 147 141 133 129 120 104 109 116 119 122 124 128 132 136 140 141 147 149 143 134